Terminal Aerodrome Forecast
Issued by NWS Mt. Holly, NJ

Home | Current Version | Previous Version | Text Only | Print | Product List | Glossary On
Versions: 1 2 3 4 5 6 7 8 9 10 11 12 13 14 15 16 17 18 19 20 21 22 23 24 25 26 27 28 29 30 31
000
FTUS41 KPHI 220300 AAA
TAFACY
TAF AMD
KACY 220313Z 2203/2224 21007KT P6SM SCT060 BKN200
     FM220700 27006KT P6SM SCT050
     FM221300 30012G22KT P6SM FEW050
     FM222200 30007KT P6SM SKC=

USA.gov is the U.S. government's official web portal to all federal, state and local government web resources and services.